UAL1070 KATL-KMIA

Flight info

Callsign UAL1070
Flight time 1h 23m
Altitude 38000
Route BANNG3 LUCKK DCT HONID FROGZ5
Aircraft B77W/H-V/N

Departure

Time 2026-05-07 23:40
Airport Hartsfield Jackson Atlanta International Airport (KATL)

Arrival

Time 2026-05-08 01:03
Airport Miami International Airport (KMIA)
Time Latitude Longitude Altitude Speed Heading
2026-05-07 22:59 33.64297 -84.42496 1011 ft 0 kts 270°
2026-05-07 23:23 33.64297 -84.42491 1011 ft 2 kts 270°
2026-05-07 23:24 33.64296 -84.42472 1011 ft 2 kts 287°
2026-05-07 23:24 33.64290 -84.42453 1011 ft 2 kts 297°
2026-05-07 23:24 33.64283 -84.42439 1011 ft 2 kts 313°
2026-05-07 23:24 33.64274 -84.42429 1011 ft 2 kts 328°
2026-05-07 23:25 33.64259 -84.42419 1011 ft 3 kts 334°
2026-05-07 23:25 33.64250 -84.42415 1011 ft 0 kts 351°
2026-05-07 23:25 33.64232 -84.42412 1011 ft 7 kts 351°
2026-05-07 23:26 33.64225 -84.42410 1011 ft 0 kts 351°
2026-05-07 23:31 33.64248 -84.42394 1011 ft 5 kts 49°
2026-05-07 23:31 33.64258 -84.42351 1011 ft 6 kts 81°
2026-05-07 23:31 33.64262 -84.42304 1011 ft 6 kts 89°
2026-05-07 23:32 33.64246 -84.42257 1011 ft 6 kts 134°
2026-05-07 23:32 33.64201 -84.42243 1011 ft 7 kts 175°
2026-05-07 23:32 33.64151 -84.42239 1011 ft 7 kts 177°
2026-05-07 23:32 33.64100 -84.42238 1011 ft 7 kts 179°
2026-05-07 23:33 33.64050 -84.42237 1011 ft 7 kts 179°
2026-05-07 23:33 33.63999 -84.42237 1011 ft 7 kts 181°
2026-05-07 23:33 33.63948 -84.42238 1011 ft 7 kts 181°
2026-05-07 23:33 33.63897 -84.42239 1011 ft 7 kts 181°
2026-05-07 23:34 33.63846 -84.42238 1011 ft 7 kts 177°
2026-05-07 23:34 33.63795 -84.42236 1011 ft 7 kts 178°
2026-05-07 23:34 33.63743 -84.42234 1011 ft 7 kts 178°
2026-05-07 23:34 33.63693 -84.42227 1011 ft 8 kts 164°
2026-05-07 23:35 33.63662 -84.42180 1012 ft 8 kts 104°
2026-05-07 23:35 33.63656 -84.42113 1012 ft 8 kts 92°
2026-05-07 23:35 33.63654 -84.42042 1011 ft 9 kts 91°
2026-05-07 23:35 33.63652 -84.41967 1011 ft 9 kts 91°
2026-05-07 23:36 33.63654 -84.41889 1011 ft 10 kts 88°
2026-05-07 23:36 33.63656 -84.41809 1011 ft 10 kts 88°
2026-05-07 23:36 33.63656 -84.41730 1011 ft 10 kts 91°
2026-05-07 23:36 33.63655 -84.41615 1011 ft 19 kts 90°
2026-05-07 23:37 33.63655 -84.41458 1011 ft 19 kts 90°
2026-05-07 23:37 33.63655 -84.41301 1011 ft 19 kts 89°
2026-05-07 23:37 33.63655 -84.41144 1011 ft 19 kts 90°
2026-05-07 23:37 33.63655 -84.41001 1011 ft 16 kts 90°
2026-05-07 23:38 33.63655 -84.40870 1011 ft 16 kts 90°
2026-05-07 23:38 33.63623 -84.40753 1012 ft 16 kts 144°
2026-05-07 23:38 33.63603 -84.40743 1012 ft 0 kts 161°
2026-05-07 23:38 33.63545 -84.40744 1012 ft 17 kts 181°
2026-05-07 23:39 33.63473 -84.40835 1012 ft 17 kts 265°
2026-05-07 23:39 33.63473 -84.41013 1011 ft 34 kts 270°
2026-05-07 23:39 33.63476 -84.41743 1011 ft 146 kts 270°
2026-05-07 23:39 33.63467 -84.43371 1351 ft 225 kts 271°
2026-05-07 23:40 33.63466 -84.45157 2369 ft 208 kts 274°
2026-05-07 23:40 33.63491 -84.46898 3272 ft 211 kts 272°
2026-05-07 23:40 33.63484 -84.48766 3713 ft 238 kts 271°
2026-05-07 23:40 33.63468 -84.50795 4454 ft 248 kts 271°
2026-05-07 23:41 33.63458 -84.52877 5427 ft 248 kts 270°
2026-05-07 23:41 33.63454 -84.54910 6571 ft 243 kts 270°
2026-05-07 23:41 33.63453 -84.56948 7490 ft 244 kts 270°
2026-05-07 23:41 33.63453 -84.58987 8439 ft 244 kts 270°
2026-05-07 23:42 33.63453 -84.61024 9419 ft 244 kts 270°
2026-05-07 23:42 33.63440 -84.63060 10281 ft 245 kts 266°
2026-05-07 23:42 33.62935 -84.65086 10691 ft 271 kts 246°
2026-05-07 23:42 33.61694 -84.66982 10892 ft 310 kts 228°
2026-05-07 23:43 33.59776 -84.68488 11186 ft 340 kts 215°
2026-05-07 23:43 33.57484 -84.69366 12216 ft 358 kts 197°
2026-05-07 23:43 33.54955 -84.69357 13266 ft 379 kts 184°
2026-05-07 23:43 33.52307 -84.68868 14186 ft 390 kts 181°
2026-05-07 23:44 33.49632 -84.68297 15164 ft 393 kts 181°
2026-05-07 23:44 33.46926 -84.67736 16296 ft 392 kts 182°
2026-05-07 23:44 33.44232 -84.67212 17393 ft 392 kts 183°
2026-05-07 23:44 33.41514 -84.66624 18322 ft 403 kts 177°
2026-05-07 23:45 33.38794 -84.65416 18969 ft 427 kts 167°
2026-05-07 23:45 33.36077 -84.63892 19773 ft 433 kts 165°
2026-05-07 23:45 33.33346 -84.62311 20647 ft 436 kts 165°
2026-05-07 23:45 33.30647 -84.60765 21488 ft 438 kts 166°
2026-05-07 23:46 33.27832 -84.59190 22309 ft 442 kts 166°
2026-05-07 23:46 33.25011 -84.57645 23074 ft 447 kts 167°
2026-05-07 23:46 33.22200 -84.56124 23792 ft 451 kts 167°
2026-05-07 23:46 33.19326 -84.54580 24407 ft 456 kts 167°
2026-05-07 23:47 33.16410 -84.53018 24999 ft 461 kts 167°
2026-05-07 23:47 33.13468 -84.51441 25599 ft 466 kts 167°
2026-05-07 23:47 33.10503 -84.49850 26220 ft 470 kts 167°
2026-05-07 23:47 33.07498 -84.48237 26821 ft 475 kts 167°
2026-05-07 23:48 33.04455 -84.46604 27383 ft 481 kts 167°
2026-05-07 23:48 33.01396 -84.44964 27944 ft 485 kts 167°
2026-05-07 23:48 33.00086 -84.44263 28214 ft 486 kts 167°
2026-05-07 23:48 32.98141 -84.43226 28559 ft 486 kts 168°
2026-05-07 23:49 32.94979 -84.41972 29033 ft 470 kts 182°
2026-05-07 23:49 32.91802 -84.41770 29467 ft 453 kts 193°
2026-05-07 23:49 32.88631 -84.41824 29923 ft 458 kts 192°
2026-05-07 23:49 32.85421 -84.41853 30401 ft 462 kts 192°
2026-05-07 23:50 32.82233 -84.41845 30907 ft 464 kts 191°
2026-05-07 23:50 32.78992 -84.41805 31456 ft 465 kts 191°
2026-05-07 23:50 32.75768 -84.41744 32042 ft 463 kts 191°
2026-05-07 23:50 32.72549 -84.41677 32534 ft 463 kts 191°
2026-05-07 23:51 32.69315 -84.41611 32878 ft 467 kts 191°
2026-05-07 23:51 32.66055 -84.41547 33185 ft 470 kts 191°
2026-05-07 23:51 32.62772 -84.41481 33504 ft 473 kts 191°
2026-05-07 23:51 32.59463 -84.41413 33839 ft 474 kts 191°
2026-05-07 23:52 32.56163 -84.41344 34221 ft 473 kts 191°
2026-05-07 23:52 32.52882 -84.41272 34633 ft 471 kts 191°
2026-05-07 23:52 32.49612 -84.41203 35026 ft 469 kts 192°
2026-05-07 23:52 32.46345 -84.41137 35315 ft 469 kts 191°
2026-05-07 23:53 32.43083 -84.41074 35622 ft 469 kts 191°
2026-05-07 23:53 32.39815 -84.41009 35996 ft 468 kts 191°
2026-05-07 23:53 32.36570 -84.40944 36376 ft 466 kts 191°
2026-05-07 23:53 32.33332 -84.40879 36765 ft 464 kts 191°
2026-05-07 23:54 32.30099 -84.40815 36978 ft 466 kts 191°
2026-05-07 23:54 32.26838 -84.40761 36959 ft 469 kts 192°
2026-05-07 23:54 32.20330 -84.40664 36916 ft 465 kts 191°
2026-05-07 23:55 32.13902 -84.40571 36955 ft 465 kts 191°
2026-05-07 23:55 32.07427 -84.40493 36960 ft 466 kts 192°
2026-05-07 23:56 32.00937 -84.40431 36967 ft 467 kts 192°
2026-05-07 23:56 31.94427 -84.40386 36905 ft 467 kts 191°
2026-05-07 23:57 31.87931 -84.40354 36957 ft 467 kts 191°
2026-05-07 23:57 31.81419 -84.40334 36968 ft 467 kts 192°
2026-05-07 23:58 31.74954 -84.40328 36965 ft 467 kts 192°
2026-05-07 23:58 31.68446 -84.40334 36973 ft 467 kts 192°
2026-05-07 23:59 31.61962 -84.40369 36968 ft 464 kts 192°
2026-05-07 23:59 31.55536 -84.40427 36973 ft 459 kts 192°
2026-05-08 00:00 31.49152 -84.40490 36974 ft 458 kts 192°
2026-05-08 00:00 31.42782 -84.40555 36980 ft 457 kts 192°
2026-05-08 00:01 31.36436 -84.40257 36973 ft 472 kts 180°
2026-05-08 00:01 31.33207 -84.39273 36977 ft 488 kts 171°
2026-05-08 00:01 31.30039 -84.37676 36982 ft 503 kts 161°
2026-05-08 00:02 31.27018 -84.35488 36983 ft 517 kts 153°
2026-05-08 00:02 31.24149 -84.32907 36977 ft 523 kts 150°
2026-05-08 00:02 31.18455 -84.27562 36967 ft 527 kts 150°
2026-05-08 00:03 31.12744 -84.22161 36983 ft 528 kts 150°
2026-05-08 00:03 31.07065 -84.16784 36970 ft 527 kts 149°
2026-05-08 00:04 31.01347 -84.11436 36971 ft 521 kts 153°
2026-05-08 00:04 30.98310 -84.09225 36969 ft 509 kts 161°
2026-05-08 00:04 30.95181 -84.07304 36982 ft 506 kts 162°
2026-05-08 00:05 30.88951 -84.03497 36985 ft 505 kts 161°
2026-05-08 00:05 30.82753 -83.99624 36987 ft 505 kts 161°
2026-05-08 00:06 30.76632 -83.95744 36997 ft 504 kts 160°
2026-05-08 00:06 30.70459 -83.91821 36996 ft 505 kts 160°
2026-05-08 00:07 30.64229 -83.88103 36984 ft 498 kts 167°
2026-05-08 00:07 30.57728 -83.85476 36968 ft 494 kts 171°
2026-05-08 00:08 30.51178 -83.83038 36987 ft 496 kts 171°
2026-05-08 00:08 30.44596 -83.80519 36981 ft 498 kts 171°
2026-05-08 00:09 30.38029 -83.77943 36970 ft 499 kts 170°
2026-05-08 00:09 30.31498 -83.75368 36989 ft 499 kts 170°
2026-05-08 00:10 30.24926 -83.72783 36996 ft 498 kts 170°
2026-05-08 00:10 30.18357 -83.70207 36993 ft 497 kts 170°
2026-05-08 00:11 30.11807 -83.67644 37000 ft 496 kts 170°
2026-05-08 00:11 30.05260 -83.65086 37003 ft 496 kts 170°
2026-05-08 00:12 29.98765 -83.62552 37001 ft 496 kts 170°
2026-05-08 00:12 29.92235 -83.60009 36994 ft 495 kts 170°
2026-05-08 00:13 29.85694 -83.57463 36998 ft 496 kts 170°
2026-05-08 00:13 29.80256 -83.55350 37005 ft 497 kts 170°
2026-05-08 00:14 29.73700 -83.52805 36993 ft 498 kts 170°
2026-05-08 00:14 29.67121 -83.50256 37006 ft 500 kts 170°
2026-05-08 00:15 29.60515 -83.47699 37012 ft 501 kts 169°
2026-05-08 00:15 29.53884 -83.45136 37001 ft 503 kts 169°
2026-05-08 00:16 29.47240 -83.42570 37009 ft 504 kts 169°
2026-05-08 00:16 29.40623 -83.40017 37013 ft 505 kts 169°
2026-05-08 00:17 29.33966 -83.37451 37011 ft 504 kts 169°
2026-05-08 00:17 29.27315 -83.34894 37012 ft 504 kts 169°
2026-05-08 00:18 29.20750 -83.31881 37018 ft 509 kts 163°
2026-05-08 00:18 29.14323 -83.28575 37016 ft 509 kts 163°
2026-05-08 00:19 29.07860 -83.25253 36983 ft 509 kts 163°
2026-05-08 00:19 29.01389 -83.21965 37010 ft 508 kts 163°
2026-05-08 00:20 28.94923 -83.18698 37023 ft 508 kts 163°
2026-05-08 00:20 28.88447 -83.15432 37017 ft 509 kts 163°
2026-05-08 00:21 28.81972 -83.12169 37027 ft 509 kts 163°
2026-05-08 00:21 28.75522 -83.08922 37010 ft 509 kts 163°
2026-05-08 00:22 28.69021 -83.05652 37021 ft 509 kts 163°
2026-05-08 00:22 28.62535 -83.02395 37024 ft 509 kts 163°
2026-05-08 00:23 28.56054 -82.99145 37021 ft 508 kts 163°
2026-05-08 00:23 28.49654 -82.95940 37023 ft 508 kts 163°
2026-05-08 00:24 28.43184 -82.92705 37022 ft 507 kts 162°
2026-05-08 00:24 28.36706 -82.89469 37027 ft 507 kts 162°
2026-05-08 00:25 28.30242 -82.86245 37027 ft 507 kts 162°
2026-05-08 00:25 28.23821 -82.83046 37023 ft 507 kts 162°
2026-05-08 00:26 28.17357 -82.79829 36999 ft 506 kts 162°
2026-05-08 00:26 28.10907 -82.76623 37030 ft 506 kts 162°
2026-05-08 00:27 28.04452 -82.73423 36882 ft 506 kts 163°
2026-05-08 00:27 28.01171 -82.72040 36559 ft 499 kts 168°
2026-05-08 00:27 27.97912 -82.71023 36227 ft 486 kts 174°
2026-05-08 00:28 27.94616 -82.70358 35901 ft 475 kts 177°
2026-05-08 00:28 27.91366 -82.69755 35581 ft 470 kts 177°
2026-05-08 00:28 27.88152 -82.69155 35281 ft 467 kts 177°
2026-05-08 00:28 27.84951 -82.68546 34960 ft 463 kts 176°
2026-05-08 00:29 27.81779 -82.67931 34639 ft 460 kts 176°
2026-05-08 00:29 27.78635 -82.67315 34341 ft 458 kts 176°
2026-05-08 00:29 27.75540 -82.66705 34060 ft 455 kts 176°
2026-05-08 00:29 27.72431 -82.66092 33724 ft 453 kts 176°
2026-05-08 00:30 27.69331 -82.65481 33380 ft 451 kts 176°
2026-05-08 00:30 27.66240 -82.64873 33048 ft 449 kts 176°
2026-05-08 00:30 27.63167 -82.64268 32734 ft 448 kts 176°
2026-05-08 00:30 27.60098 -82.63665 32404 ft 447 kts 176°
2026-05-08 00:31 27.57035 -82.63063 32051 ft 446 kts 176°
2026-05-08 00:31 27.53972 -82.62462 31697 ft 446 kts 176°
2026-05-08 00:31 27.50933 -82.61711 31339 ft 449 kts 172°
2026-05-08 00:31 27.47919 -82.60831 30997 ft 449 kts 172°
2026-05-08 00:32 27.44929 -82.59936 30656 ft 448 kts 171°
2026-05-08 00:32 27.41925 -82.59034 30329 ft 446 kts 171°
2026-05-08 00:32 27.38932 -82.58140 29972 ft 444 kts 172°
2026-05-08 00:32 27.35951 -82.57256 29559 ft 442 kts 172°
2026-05-08 00:33 27.33047 -82.56394 29073 ft 423 kts 172°
2026-05-08 00:33 27.30220 -82.55558 28594 ft 417 kts 172°
2026-05-08 00:33 27.27395 -82.54735 28134 ft 422 kts 172°
2026-05-08 00:33 27.24533 -82.53905 27613 ft 426 kts 172°
2026-05-08 00:34 27.21670 -82.53070 27047 ft 423 kts 171°
2026-05-08 00:34 27.18837 -82.52239 26495 ft 418 kts 171°
2026-05-08 00:34 27.16035 -82.51417 25937 ft 414 kts 171°
2026-05-08 00:34 27.13257 -82.50604 25369 ft 411 kts 171°
2026-05-08 00:35 27.10494 -82.49797 24784 ft 409 kts 171°
2026-05-08 00:35 27.07748 -82.48995 24197 ft 406 kts 171°
2026-05-08 00:35 27.05019 -82.48198 23629 ft 403 kts 171°
2026-05-08 00:35 27.02314 -82.47408 22961 ft 399 kts 171°
2026-05-08 00:36 26.99640 -82.46628 22283 ft 396 kts 171°
2026-05-08 00:36 26.97017 -82.45864 21596 ft 392 kts 171°
2026-05-08 00:36 26.95756 -82.45497 21278 ft 390 kts 171°
2026-05-08 00:36 26.93169 -82.44602 20621 ft 389 kts 162°
2026-05-08 00:37 26.90740 -82.43241 19922 ft 390 kts 153°
2026-05-08 00:37 26.88528 -82.41512 19242 ft 386 kts 143°
2026-05-08 00:37 26.86500 -82.39572 18570 ft 379 kts 142°
2026-05-08 00:38 26.82471 -82.35646 17125 ft 381 kts 141°
2026-05-08 00:38 26.80530 -82.33757 16379 ft 368 kts 141°
2026-05-08 00:38 26.78624 -82.31913 15652 ft 356 kts 141°
2026-05-08 00:38 26.76778 -82.30135 14937 ft 346 kts 141°
2026-05-08 00:39 26.74965 -82.28395 14224 ft 340 kts 141°
2026-05-08 00:39 26.73180 -82.26685 13472 ft 335 kts 141°
2026-05-08 00:39 26.71423 -82.25004 12681 ft 330 kts 141°
2026-05-08 00:39 26.69688 -82.23344 11901 ft 326 kts 141°
2026-05-08 00:40 26.67974 -82.21705 11403 ft 323 kts 141°
2026-05-08 00:40 26.66278 -82.20084 11217 ft 320 kts 141°
2026-05-08 00:40 26.64591 -82.18472 11054 ft 317 kts 141°
2026-05-08 00:40 26.62952 -82.16907 11009 ft 314 kts 141°
2026-05-08 00:41 26.61288 -82.15318 11010 ft 315 kts 141°
2026-05-08 00:41 26.59616 -82.13722 11008 ft 315 kts 141°
2026-05-08 00:41 26.57949 -82.12130 11004 ft 315 kts 141°
2026-05-08 00:41 26.56266 -82.10525 11015 ft 323 kts 141°
2026-05-08 00:42 26.54552 -82.08893 11008 ft 322 kts 141°
2026-05-08 00:42 26.52874 -82.07291 10995 ft 316 kts 141°
2026-05-08 00:42 26.51247 -82.05681 10988 ft 312 kts 140°
2026-05-08 00:42 26.49631 -82.04050 11005 ft 314 kts 139°
2026-05-08 00:43 26.48011 -82.02409 11009 ft 315 kts 139°
2026-05-08 00:43 26.46405 -82.00784 11011 ft 316 kts 139°
2026-05-08 00:43 26.44768 -81.99129 11010 ft 317 kts 139°
2026-05-08 00:43 26.43130 -81.97477 11006 ft 318 kts 140°
2026-05-08 00:44 26.41484 -81.95819 11004 ft 318 kts 140°
2026-05-08 00:44 26.39836 -81.94160 11000 ft 318 kts 140°
2026-05-08 00:44 26.38198 -81.92511 11000 ft 318 kts 140°
2026-05-08 00:44 26.36557 -81.90861 11001 ft 317 kts 140°
2026-05-08 00:45 26.34922 -81.89218 10998 ft 316 kts 140°
2026-05-08 00:45 26.33291 -81.87579 11000 ft 315 kts 139°
2026-05-08 00:45 26.31661 -81.85942 11003 ft 314 kts 139°
2026-05-08 00:45 26.30036 -81.84309 11004 ft 314 kts 139°
2026-05-08 00:46 26.28431 -81.82699 11002 ft 313 kts 139°
2026-05-08 00:46 26.26797 -81.81062 11014 ft 322 kts 139°
2026-05-08 00:46 26.25116 -81.79344 11014 ft 331 kts 136°
2026-05-08 00:46 26.23635 -81.77373 11009 ft 333 kts 127°
2026-05-08 00:47 26.22368 -81.75212 11009 ft 335 kts 120°
2026-05-08 00:47 26.21306 -81.72890 11016 ft 339 kts 116°
2026-05-08 00:47 26.20305 -81.70494 11016 ft 342 kts 116°
2026-05-08 00:47 26.19313 -81.68087 11011 ft 342 kts 116°
2026-05-08 00:48 26.18312 -81.65680 11002 ft 341 kts 116°
2026-05-08 00:48 26.17303 -81.63288 10998 ft 340 kts 116°
2026-05-08 00:48 26.16291 -81.60915 10999 ft 340 kts 116°
2026-05-08 00:48 26.15284 -81.58573 10999 ft 339 kts 117°
2026-05-08 00:49 26.14260 -81.56203 10987 ft 339 kts 117°
2026-05-08 00:49 26.13237 -81.53845 10996 ft 339 kts 117°
2026-05-08 00:49 26.12207 -81.51475 10993 ft 339 kts 117°
2026-05-08 00:49 26.11179 -81.49113 10985 ft 339 kts 117°
2026-05-08 00:50 26.10148 -81.46745 10986 ft 339 kts 117°
2026-05-08 00:50 26.09116 -81.44377 10986 ft 340 kts 117°
2026-05-08 00:50 26.08082 -81.42007 10989 ft 340 kts 117°
2026-05-08 00:50 26.07050 -81.39642 10985 ft 340 kts 117°
2026-05-08 00:51 26.06016 -81.37272 10984 ft 340 kts 117°
2026-05-08 00:51 26.04981 -81.34903 10986 ft 341 kts 117°
2026-05-08 00:51 26.03944 -81.32530 10985 ft 341 kts 117°
2026-05-08 00:51 26.02919 -81.30186 10985 ft 341 kts 117°
2026-05-08 00:52 26.01882 -81.27815 10986 ft 341 kts 117°
2026-05-08 00:52 26.00845 -81.25445 10985 ft 341 kts 117°
2026-05-08 00:52 25.99804 -81.23066 10985 ft 341 kts 117°
2026-05-08 00:52 25.98763 -81.20688 10978 ft 341 kts 117°
2026-05-08 00:53 25.97731 -81.18333 10982 ft 340 kts 117°
2026-05-08 00:53 25.96699 -81.15979 10979 ft 339 kts 117°
2026-05-08 00:53 25.95678 -81.13655 10979 ft 338 kts 116°
2026-05-08 00:53 25.94647 -81.11307 10979 ft 337 kts 116°
2026-05-08 00:54 25.93622 -81.08967 10981 ft 337 kts 117°
2026-05-08 00:54 25.92597 -81.06628 10978 ft 336 kts 117°
2026-05-08 00:54 25.91568 -81.04281 10980 ft 336 kts 117°
2026-05-08 00:54 25.90584 -81.01929 10977 ft 336 kts 114°
2026-05-08 00:55 25.89701 -80.99601 10977 ft 336 kts 113°
2026-05-08 00:55 25.88805 -80.97202 10978 ft 336 kts 113°
2026-05-08 00:55 25.87899 -80.94806 10980 ft 336 kts 113°
2026-05-08 00:55 25.86986 -80.92412 10978 ft 336 kts 114°
2026-05-08 00:56 25.86068 -80.90018 10973 ft 337 kts 114°
2026-05-08 00:56 25.85146 -80.87619 10974 ft 337 kts 114°
2026-05-08 00:56 25.84227 -80.85232 10974 ft 337 kts 114°
2026-05-08 00:56 25.83317 -80.82866 10976 ft 337 kts 114°
2026-05-08 00:57 25.82397 -80.80477 10974 ft 337 kts 114°
2026-05-08 00:57 25.81472 -80.78076 10974 ft 337 kts 114°
2026-05-08 00:57 25.80550 -80.75681 10974 ft 337 kts 114°
2026-05-08 00:57 25.79627 -80.73288 10975 ft 337 kts 114°
2026-05-08 00:58 25.78706 -80.70900 10975 ft 337 kts 114°
2026-05-08 00:58 25.77780 -80.68505 10974 ft 337 kts 113°
2026-05-08 00:58 25.77089 -80.66076 10964 ft 328 kts 96°
2026-05-08 00:58 25.77152 -80.63619 10940 ft 312 kts 85°
2026-05-08 00:59 25.77314 -80.61268 10641 ft 296 kts 87°
2026-05-08 00:59 25.77427 -80.59047 10290 ft 281 kts 88°
2026-05-08 00:59 25.77530 -80.56952 9750 ft 274 kts 87°
2026-05-08 00:59 25.77611 -80.55517 9330 ft 270 kts 88°
2026-05-08 01:00 25.77739 -80.52795 8484 ft 265 kts 88°
2026-05-08 01:00 25.77822 -80.50772 7852 ft 258 kts 88°
2026-05-08 01:00 25.77899 -80.48842 7176 ft 245 kts 88°
2026-05-08 01:00 25.77938 -80.47595 6573 ft 244 kts 88°
2026-05-08 01:01 25.77983 -80.45720 5709 ft 238 kts 88°
2026-05-08 01:01 25.78024 -80.43932 4973 ft 228 kts 87°
2026-05-08 01:01 25.78073 -80.42155 3989 ft 232 kts 87°
2026-05-08 01:01 25.78155 -80.40358 3085 ft 232 kts 85°
2026-05-08 01:02 25.78277 -80.38599 2278 ft 226 kts 86°
2026-05-08 01:02 25.78395 -80.36876 1475 ft 220 kts 88°
2026-05-08 01:02 25.78439 -80.35247 954 ft 203 kts 90°
2026-05-08 01:02 25.78514 -80.33748 558 ft 184 kts 90°
2026-05-08 01:03 25.78565 -80.32464 279 ft 153 kts 90°
2026-05-08 01:03 25.78615 -80.31366 57 ft 137 kts 90°
2026-05-08 01:03 25.78645 -80.30431 25 ft 98 kts 84°
2026-05-08 01:03 25.78675 -80.29882 25 ft 45 kts 88°
2026-05-08 01:04 25.78681 -80.29709 26 ft 12 kts 87°
2026-05-08 01:04 25.78687 -80.29613 29 ft 13 kts 86°
2026-05-08 01:04 25.78696 -80.29452 28 ft 29 kts 86°
2026-05-08 01:04 25.78735 -80.29236 27 ft 29 kts 59°
2026-05-08 01:05 25.78776 -80.29185 28 ft 0 kts 34°
2026-05-08 01:06 25.78828 -80.29166 29 ft 16 kts 16°
2026-05-08 01:06 25.78900 -80.29080 28 ft 17 kts 79°
2026-05-08 01:07 25.78924 -80.28956 27 ft 17 kts 75°
2026-05-08 01:07 25.78945 -80.28830 22 ft 17 kts 84°
2026-05-08 01:07 25.78952 -80.28702 22 ft 17 kts 87°
2026-05-08 01:07 25.78967 -80.28576 28 ft 17 kts 67°
2026-05-08 01:08 25.79051 -80.28488 26 ft 17 kts 36°
2026-05-08 01:08 25.79152 -80.28417 26 ft 17 kts 20°
2026-05-08 01:08 25.79254 -80.28354 28 ft 17 kts 41°
2026-05-08 01:08 25.79343 -80.28260 27 ft 18 kts 53°
2026-05-08 01:09 25.79392 -80.28140 28 ft 4 kts 42°
2026-05-08 01:09 25.79395 -80.28138 28 ft 1 kts 40°
2026-05-08 01:09 25.79421 -80.28123 28 ft 8 kts 24°
2026-05-08 01:09 25.79446 -80.28113 28 ft 0 kts